"Period start","avg(HW err(1)/warn(2) (#))","avg(Visibility (m))","avg(Weather code (#))","avg(Precip intensity (mm/h))","min(HW err(1)/warn(2) (#))","max(HW err(1)/warn(2) (#))","std(HW err(1)/warn(2) (#))","med(HW err(1)/warn(2) (#))","min(Visibility (m))","max(Visibility (m))","std(Visibility (m))","med(Visibility (m))","min(Weather code (#))","max(Weather code (#))","std(Weather code (#))","med(Weather code (#))","min(Precip intensity (mm/h))","max(Precip intensity (mm/h))","std(Precip intensity (mm/h))","med(Precip intensity (mm/h))"
2013-08-27 00:00:00,2,28044,0,0.00,2,2,0,2,13201,49687,12122,23685,0,0,0,0,0.00,0.00,0.00,0.00
2013-08-27 00:10:00,2,46622,0,0.00,2,2,0,2,34654,50000,4775,49150,0,0,0,0,0.00,0.00,0.00,0.00
2013-08-27 00:20:00,2,46366,0,0.00,2,2,0,2,42264,50000,2478,46307,0,0,0,0,0.00,0.00,0.00,0.00
2013-08-27 00:30:00,2,49677,0,0.00,2,2,0,2,46774,50000,968,50000,0,0,0,0,0.00,0.00,0.00,0.00
2013-08-27 00:40:00,2,47795,0,0.00,2,2,0,2,42345,50000,2245,48166,0,0,0,0,0.00,0.00,0.00,0.00
2013-08-27 00:50:00,2,47315,0,0.00,2,2,0,2,40825,50000,3026,48646,0,0,0,0,0.00,0.00,0.00,0.00
2013-08-27 01:00:00,2,43500,0,0.00,2,2,0,2,35281,49673,4961,43618,0,0,0,0,0.00,0.00,0.00,0.00
2013-08-27 01:10:00,2,48804,0,0.00,2,2,0,2,43547,50000,2139,50000,0,0,0,0,0.00,0.00,0.00,0.00
2013-08-27 01:20:00,2,49389,0,0.00,2,2,0,2,44087,50000,1768,50000,0,0,0,0,0.00,0.00,0.00,0.00
2013-08-27 01:30:00,2,49295,0,0.00,2,2,0,2,46205,50000,1159,50000,0,0,0,0,0.00,0.00,0.00,0.00
2013-08-27 01:40:00,2,49727,0,0.00,2,2,0,2,47818,50000,657,50000,0,0,0,0,0.00,0.00,0.00,0.00
2013-08-27 01:50:00,2,49768,0,0.00,2,2,0,2,48187,50000,547,50000,0,0,0,0,0.00,0.00,0.00,0.00
2013-08-27 02:00:00,2,49613,0,0.00,2,2,0,2,48010,50000,775,50000,0,0,0,0,0.00,0.00,0.00,0.00
2013-08-27 02:10:00,2,49996,0,0.00,2,2,0,2,49955,50000,14,50000,0,0,0,0,0.00,0.00,0.00,0.00
2013-08-27 02:20:00,2,50000,0,0.00,2,2,0,2,50000,50000,0,50000,0,0,0,0,0.00,0.00,0.00,0.00
2013-08-27 02:30:00,2,49933,0,0.00,2,2,0,2,49331,50000,201,50000,0,0,0,0,0.00,0.00,0.00,0.00
2013-08-27 02:40:00,2,48618,0,0.00,2,2,0,2,44550,50000,1906,50000,0,0,0,0,0.00,0.00,0.00,0.00
2013-08-27 02:50:00,2,48582,0,0.00,2,2,0,2,45090,50000,1724,49619,0,0,0,0,0.00,0.00,0.00,0.00
2013-08-27 03:00:00,2,50000,0,0.00,2,2,0,2,50000,50000,0,50000,0,0,0,0,0.00,0.00,0.00,0.00
2013-08-27 03:10:00,2,49495,0,0.00,2,2,0,2,47083,50000,994,50000,0,0,0,0,0.00,0.00,0.00,0.00
2013-08-27 03:20:00,2,48421,0,0.00,2,2,0,2,41363,50000,2655,50000,0,0,0,0,0.00,0.00,0.00,0.00
2013-08-27 03:30:00,2,49121,0,0.00,2,2,0,2,44201,50000,1708,50000,0,0,0,0,0.00,0.00,0.00,0.00
2013-08-27 03:40:00,2,49484,0,0.00,2,2,0,2,46251,50000,1105,50000,0,0,0,0,0.00,0.00,0.00,0.00
2013-08-27 03:50:00,2,49761,0,0.00,2,2,0,2,47613,50000,716,50000,0,0,0,0,0.00,0.00,0.00,0.00
2013-08-27 04:00:00,2,49368,0,0.00,2,2,0,2,45658,50000,1276,50000,0,0,0,0,0.00,0.00,0.00,0.00
2013-08-27 04:10:00,2,49297,0,0.00,2,2,0,2,44463,50000,1638,50000,0,0,0,0,0.00,0.00,0.00,0.00
2013-08-27 04:20:00,2,49575,0,0.00,2,2,0,2,47235,50000,897,50000,0,0,0,0,0.00,0.00,0.00,0.00
2013-08-27 04:30:00,2,49800,0,0.00,2,2,0,2,49016,50000,340,50000,0,0,0,0,0.00,0.00,0.00,0.00
2013-08-27 04:40:00,2,49524,0,0.00,2,2,0,2,46444,50000,1088,50000,0,0,0,0,0.00,0.00,0.00,0.00
2013-08-27 04:50:00,2,50000,0,0.00,2,2,0,2,50000,50000,0,50000,0,0,0,0,0.00,0.00,0.00,0.00
2013-08-27 05:00:00,2,49370,0,0.00,2,2,0,2,43695,50000,1892,50000,0,0,0,0,0.00,0.00,0.00,0.00
2013-08-27 05:10:00,2,49119,0,0.00,2,2,0,2,42834,50000,2149,50000,0,0,0,0,0.00,0.00,0.00,0.00
2013-08-27 05:20:00,2,49807,0,0.00,2,2,0,2,48622,50000,428,50000,0,0,0,0,0.00,0.00,0.00,0.00
2013-08-27 05:30:00,2,49161,0,0.00,2,2,0,2,46858,50000,1305,50000,0,0,0,0,0.00,0.00,0.00,0.00
2013-08-27 05:40:00,2,47566,0,0.00,2,2,0,2,41256,50000,3281,49299,0,0,0,0,0.00,0.00,0.00,0.00
2013-08-27 05:50:00,2,48072,0,0.00,2,2,0,2,42977,50000,2318,48846,0,0,0,0,0.00,0.00,0.00,0.00
2013-08-27 06:00:00,2,49476,6,0.00,2,2,0,2,47499,50000,943,50000,0,61,18,0,0.00,0.00,0.00,0.00
2013-08-27 06:10:00,2,49923,59,0.22,2,2,0,2,49227,50000,232,50000,51,61,4,61,0.00,0.85,0.29,0.08
2013-08-27 06:20:00,2,50000,52,0.28,2,2,0,2,50000,50000,0,50000,51,61,3,51,0.05,0.55,0.17,0.28
2013-08-27 06:30:00,2,49106,51,0.11,2,2,0,2,45122,50000,1552,50000,51,51,0,51,0.00,0.25,0.10,0.12
2013-08-27 06:40:00,2,39579,51,0.35,2,2,0,2,29908,50000,6447,37906,51,51,0,51,0.05,1.10,0.27,0.30
2013-08-27 06:50:00,2,28104,51,0.58,2,2,0,2,20619,37788,5608,28016,51,52,0,51,0.10,1.55,0.49,0.40
2013-08-27 07:00:00,2,34823,51,0.26,2,2,0,2,27031,45196,5717,32353,51,51,0,51,0.05,0.70,0.23,0.15
2013-08-27 07:10:00,2,31583,56,0.24,2,2,0,2,14253,42068,8722,33402,51,61,5,56,0.05,0.75,0.21,0.15
2013-08-27 07:20:00,2,14330,52,0.70,2,2,0,2,10846,18027,2475,14316,51,52,0,52,0.20,1.15,0.30,0.73
2013-08-27 07:30:00,2,30095,26,0.22,2,2,0,2,11142,50000,15116,26346,0,52,26,26,0.00,1.00,0.33,0.03
2013-08-27 07:40:00,2,22788,0,0.00,2,2,0,2,12084,49431,10333,19568,0,0,0,0,0.00,0.00,0.00,0.00
2013-08-27 07:50:00,2,30096,12,0.04,2,2,0,2,15444,50000,12809,27010,0,61,24,0,0.00,0.30,0.09,0.00
2013-08-27 08:00:00,2,39266,15,0.01,2,2,0,2,23479,50000,8702,39184,0,51,23,0,0.00,0.05,0.02,0.00
2013-08-27 08:10:00,2,36514,0,0.00,2,2,0,2,19118,50000,12779,38482,0,0,0,0,0.00,0.00,0.00,0.00
2013-08-27 08:20:00,2,44020,0,0.00,2,2,0,2,27900,50000,8669,49392,0,0,0,0,0.00,0.00,0.00,0.00
2013-08-27 08:30:00,2,49844,0,0.00,2,2,0,2,48944,50000,336,50000,0,0,0,0,0.00,0.00,0.00,0.00
2013-08-27 08:40:00,2,49867,0,0.00,2,2,0,2,48669,50000,399,50000,0,0,0,0,0.00,0.00,0.00,0.00
2013-08-27 08:50:00,2,49933,0,0.00,2,2,0,2,49600,50000,137,50000,0,0,0,0,0.00,0.00,0.00,0.00
2013-08-27 09:00:00,2,49854,0,0.00,2,2,0,2,48539,50000,438,50000,0,0,0,0,0.00,0.00,0.00,0.00
2013-08-27 09:10:00,2,50000,0,0.00,2,2,0,2,50000,50000,0,50000,0,0,0,0,0.00,0.00,0.00,0.00
2013-08-27 09:20:00,2,50000,0,0.00,2,2,0,2,50000,50000,0,50000,0,0,0,0,0.00,0.00,0.00,0.00
2013-08-27 09:30:00,2,50000,0,0.00,0,2,1,2,50000,50000,0,50000,0,0,0,0,0.00,0.00,0.00,0.00
2013-08-27 09:40:00,2,50000,0,0.00,2,2,0,2,50000,50000,0,50000,0,0,0,0,0.00,0.00,0.00,0.00
2013-08-27 09:50:00,2,50000,0,0.00,0,2,1,2,50000,50000,0,50000,0,0,0,0,0.00,0.00,0.00,0.00
2013-08-27 10:00:00,2,50000,0,0.00,2,2,0,2,50000,50000,0,50000,0,0,0,0,0.00,0.00,0.00,0.00
2013-08-27 10:10:00,2,50000,0,0.00,2,2,0,2,50000,50000,0,50000,0,0,0,0,0.00,0.00,0.00,0.00
2013-08-27 10:20:00,2,50000,0,0.00,2,2,0,2,50000,50000,0,50000,0,0,0,0,0.00,0.00,0.00,0.00
2013-08-27 10:30:00,2,50000,0,0.00,2,2,0,2,50000,50000,0,50000,0,0,0,0,0.00,0.00,0.00,0.00
2013-08-27 10:40:00,2,50000,0,0.00,2,2,0,2,50000,50000,0,50000,0,0,0,0,0.00,0.00,0.00,0.00
2013-08-27 10:50:00,2,50000,0,0.00,2,2,0,2,50000,50000,0,50000,0,0,0,0,0.00,0.00,0.00,0.00
2013-08-27 11:00:00,2,50000,0,0.00,2,2,0,2,50000,50000,0,50000,0,0,0,0,0.00,0.00,0.00,0.00
2013-08-27 11:10:00,2,49978,0,0.00,2,2,0,2,49775,50000,68,50000,0,0,0,0,0.00,0.00,0.00,0.00
2013-08-27 11:20:00,2,50000,0,0.00,2,2,0,2,50000,50000,0,50000,0,0,0,0,0.00,0.00,0.00,0.00
2013-08-27 11:30:00,2,50000,0,0.00,2,2,0,2,50000,50000,0,50000,0,0,0,0,0.00,0.00,0.00,0.00
2013-08-27 11:40:00,2,50000,0,0.00,2,2,0,2,50000,50000,0,50000,0,0,0,0,0.00,0.00,0.00,0.00
2013-08-27 11:50:00,2,50000,0,0.00,2,2,0,2,50000,50000,0,50000,0,0,0,0,0.00,0.00,0.00,0.00
2013-08-27 12:00:00,2,47586,0,0.00,2,2,0,2,35806,50000,4920,50000,0,0,0,0,0.00,0.00,0.00,0.00
2013-08-27 12:10:00,2,49764,0,0.00,2,2,0,2,47635,50000,710,50000,0,0,0,0,0.00,0.00,0.00,0.00
2013-08-27 12:20:00,2,50000,0,0.00,2,2,0,2,50000,50000,0,50000,0,0,0,0,0.00,0.00,0.00,0.00
2013-08-27 12:30:00,2,50000,0,0.00,2,2,0,2,50000,50000,0,50000,0,0,0,0,0.00,0.00,0.00,0.00
2013-08-27 12:40:00,2,50000,0,0.00,2,2,0,2,50000,50000,0,50000,0,0,0,0,0.00,0.00,0.00,0.00
2013-08-27 12:50:00,2,50000,0,0.00,2,2,0,2,50000,50000,0,50000,0,0,0,0,0.00,0.00,0.00,0.00
2013-08-27 13:00:00,2,50000,0,0.00,2,2,0,2,50000,50000,0,50000,0,0,0,0,0.00,0.00,0.00,0.00
2013-08-27 13:10:00,2,50000,0,0.00,2,2,0,2,50000,50000,0,50000,0,0,0,0,0.00,0.00,0.00,0.00
2013-08-27 13:20:00,2,50000,0,0.00,2,2,0,2,50000,50000,0,50000,0,0,0,0,0.00,0.00,0.00,0.00
2013-08-27 13:30:00,2,50000,0,0.00,2,2,0,2,50000,50000,0,50000,0,0,0,0,0.00,0.00,0.00,0.00
2013-08-27 13:40:00,2,49936,0,0.00,2,2,0,2,49361,50000,192,50000,0,0,0,0,0.00,0.00,0.00,0.00
2013-08-27 13:50:00,2,50000,0,0.00,2,2,0,2,50000,50000,0,50000,0,0,0,0,0.00,0.00,0.00,0.00
2013-08-27 14:00:00,2,50000,0,0.00,2,2,0,2,50000,50000,0,50000,0,0,0,0,0.00,0.00,0.00,0.00
2013-08-27 14:10:00,2,50000,0,0.00,2,2,0,2,50000,50000,0,50000,0,0,0,0,0.00,0.00,0.00,0.00
2013-08-27 14:20:00,2,50000,0,0.00,0,2,1,2,50000,50000,0,50000,0,0,0,0,0.00,0.00,0.00,0.00
2013-08-27 14:30:00,2,50000,0,0.00,0,2,1,2,50000,50000,0,50000,0,0,0,0,0.00,0.00,0.00,0.00
2013-08-27 14:40:00,2,50000,0,0.00,0,2,1,2,50000,50000,0,50000,0,0,0,0,0.00,0.00,0.00,0.00
2013-08-27 14:50:00,2,50000,0,0.00,2,2,0,2,50000,50000,0,50000,0,0,0,0,0.00,0.00,0.00,0.00
2013-08-27 15:00:00,0,50000,0,0.00,0,0,0,0,50000,50000,0,50000,0,0,0,0,0.00,0.00,0.00,0.00
2013-08-27 15:10:00,0,50000,0,0.00,0,0,0,0,50000,50000,0,50000,0,0,0,0,0.00,0.00,0.00,0.00
2013-08-27 15:20:00,0,50000,0,0.00,0,0,0,0,50000,50000,0,50000,0,0,0,0,0.00,0.00,0.00,0.00
2013-08-27 15:30:00,0,50000,0,0.00,0,0,0,0,50000,50000,0,50000,0,0,0,0,0.00,0.00,0.00,0.00
2013-08-27 15:40:00,0,50000,0,0.00,0,0,0,0,50000,50000,0,50000,0,0,0,0,0.00,0.00,0.00,0.00
2013-08-27 15:50:00,0,50000,0,0.00,0,0,0,0,50000,50000,0,50000,0,0,0,0,0.00,0.00,0.00,0.00
2013-08-27 16:00:00,0,50000,0,0.00,0,0,0,0,50000,50000,0,50000,0,0,0,0,0.00,0.00,0.00,0.00
2013-08-27 16:10:00,0,50000,0,0.00,0,0,0,0,50000,50000,0,50000,0,0,0,0,0.00,0.00,0.00,0.00
2013-08-27 16:20:00,0,50000,0,0.00,0,0,0,0,50000,50000,0,50000,0,0,0,0,0.00,0.00,0.00,0.00
2013-08-27 16:30:00,1,50000,0,0.00,0,2,1,2,50000,50000,0,50000,0,0,0,0,0.00,0.00,0.00,0.00
2013-08-27 16:40:00,1,50000,0,0.00,0,2,1,2,50000,50000,0,50000,0,0,0,0,0.00,0.00,0.00,0.00
2013-08-27 16:50:00,2,50000,0,0.00,2,2,0,2,50000,50000,0,50000,0,0,0,0,0.00,0.00,0.00,0.00
2013-08-27 17:00:00,2,50000,0,0.00,2,2,0,2,50000,50000,0,50000,0,0,0,0,0.00,0.00,0.00,0.00
2013-08-27 17:10:00,2,50000,0,0.00,2,2,0,2,50000,50000,0,50000,0,0,0,0,0.00,0.00,0.00,0.00
2013-08-27 17:20:00,2,50000,0,0.00,2,2,0,2,50000,50000,0,50000,0,0,0,0,0.00,0.00,0.00,0.00
2013-08-27 17:30:00,2,50000,0,0.00,2,2,0,2,50000,50000,0,50000,0,0,0,0,0.00,0.00,0.00,0.00
2013-08-27 17:40:00,2,50000,0,0.00,2,2,0,2,50000,50000,0,50000,0,0,0,0,0.00,0.00,0.00,0.00
2013-08-27 17:50:00,2,48832,0,0.00,2,2,0,2,38315,50000,3506,50000,0,0,0,0,0.00,0.00,0.00,0.00
2013-08-27 18:00:00,1,41148,23,0.69,0,2,1,2,19242,50000,10864,45618,0,61,28,0,0.00,3.50,1.21,0.00
2013-08-27 18:10:00,2,45335,12,0.18,2,2,0,2,28970,50000,7556,50000,0,61,24,0,0.00,1.75,0.52,0.00
2013-08-27 18:20:00,2,47814,37,0.66,2,2,0,2,31027,50000,5631,50000,0,61,30,61,0.00,3.30,1.00,0.10
2013-08-27 18:30:00,2,50000,0,0.00,2,2,0,2,50000,50000,0,50000,0,0,0,0,0.00,0.00,0.00,0.00
2013-08-27 18:40:00,2,50000,0,0.00,2,2,0,2,50000,50000,0,50000,0,0,0,0,0.00,0.00,0.00,0.00
2013-08-27 18:50:00,1,35546,37,1.85,0,2,1,2,8791,50000,14034,35658,0,61,30,61,0.00,7.95,2.60,0.03
2013-08-27 19:00:00,2,50000,0,0.00,2,2,0,2,50000,50000,0,50000,0,0,0,0,0.00,0.00,0.00,0.00
2013-08-27 19:10:00,2,50000,0,0.00,2,2,0,2,50000,50000,0,50000,0,0,0,0,0.00,0.00,0.00,0.00
2013-08-27 19:20:00,2,50000,0,0.00,0,2,1,2,50000,50000,0,50000,0,0,0,0,0.00,0.00,0.00,0.00
2013-08-27 19:30:00,1,50000,0,0.00,0,2,1,2,50000,50000,0,50000,0,0,0,0,0.00,0.00,0.00,0.00
2013-08-27 19:40:00,0,43915,30,1.32,0,2,1,0,32853,50000,6435,47348,0,61,30,30,0.00,4.30,1.54,0.53
2013-08-27 19:50:00,2,36748,61,2.02,0,2,1,2,22533,50000,8839,33501,61,61,0,61,0.65,3.95,1.05,1.60
2013-08-27 20:00:00,2,46247,61,1.91,2,2,0,2,36540,50000,4289,47472,61,61,0,61,0.60,4.00,0.95,1.98
2013-08-27 20:10:00,2,49623,59,0.11,2,2,0,2,46228,50000,1132,50000,51,61,4,61,0.00,0.35,0.11,0.08
2013-08-27 20:20:00,2,50000,54,0.11,0,2,1,2,50000,50000,0,50000,51,61,5,51,0.00,0.35,0.10,0.08
2013-08-27 20:30:00,1,50000,48,0.10,0,2,1,0,50000,50000,0,50000,41,51,5,51,0.00,0.35,0.10,0.05
2013-08-27 20:40:00,0,49973,45,0.02,0,0,0,0,49732,50000,80,50000,41,61,7,41,0.00,0.05,0.02,0.00
2013-08-27 20:50:00,0,50000,0,0.00,0,0,0,0,50000,50000,0,50000,0,0,0,0,0.00,0.00,0.00,0.00
2013-08-27 21:00:00,0,49664,24,0.09,0,0,0,0,47297,50000,813,50000,0,61,30,0,0.00,0.85,0.26,0.00
2013-08-27 21:10:00,0,50000,0,0.00,0,0,0,0,50000,50000,0,50000,0,0,0,0,0.00,0.00,0.00,0.00
2013-08-27 21:20:00,0,48046,12,0.04,0,0,0,0,39561,50000,3152,50000,0,61,24,0,0.00,0.35,0.11,0.00
2013-08-27 21:30:00,0,49243,57,1.19,0,0,0,0,44952,50000,1516,50000,51,61,5,61,0.05,2.40,0.73,1.27
2013-08-27 21:40:00,0,47314,55,0.86,0,0,0,0,38999,50000,3768,49111,51,61,4,52,0.30,1.60,0.39,0.83
2013-08-27 21:50:00,0,48130,48,0.47,0,0,0,0,36032,50000,4116,50000,41,52,5,51,0.00,1.60,0.48,0.30
2013-08-27 22:00:00,0,48610,52,0.51,0,0,0,0,44638,50000,1801,49469,51,52,0,52,0.15,1.20,0.30,0.45
2013-08-27 22:10:00,0,44918,53,0.70,0,0,0,0,39478,50000,3969,43434,51,61,4,52,0.10,1.30,0.39,0.65
2013-08-27 22:20:00,0,45957,57,1.76,0,0,0,0,33486,50000,5576,49063,52,61,4,61,0.50,5.15,1.37,1.25
2013-08-27 22:30:00,0,28753,61,7.78,0,0,0,0,19209,50000,8708,26664,61,62,0,61,3.50,14.60,3.65,6.33
2013-08-27 22:40:00,0,34064,61,4.38,0,0,0,0,13926,50000,12687,35001,61,62,0,61,0.05,11.35,3.81,4.70
2013-08-27 22:50:00,0,49976,21,0.03,0,0,0,0,49755,50000,74,50000,0,61,26,0,0.00,0.20,0.06,0.00
2013-08-27 23:00:00,0,49999,0,0.00,0,0,0,0,49988,50000,4,50000,0,0,0,0,0.00,0.00,0.00,0.00
2013-08-27 23:10:00,0,50000,0,0.00,0,0,0,0,50000,50000,0,50000,0,0,0,0,0.00,0.00,0.00,0.00
2013-08-27 23:20:00,0,50000,0,0.00,0,0,0,0,50000,50000,0,50000,0,0,0,0,0.00,0.00,0.00,0.00
2013-08-27 23:30:00,0,49716,0,0.00,0,0,0,0,47163,50000,851,50000,0,0,0,0,0.00,0.00,0.00,0.00
2013-08-27 23:40:00,0,46643,45,0.28,0,0,0,0,41550,50000,3675,48831,0,61,23,52,0.00,1.20,0.37,0.12
2013-08-27 23:50:00,0,38168,56,6.56,0,0,0,0,21591,50000,10959,38794,51,62,5,56,0.05,22.30,6.69,4.50
